Lorain / Elyria, OH

10:15 PM EDT on April 23, 2017 (GMT -0400)
Lorain County Regional

Weather History for KLPR - November, 2012

Change the Weather History Date:

Thursday, November 29, 2012

  Actual Average (KCLE) Record (KCLE)
Temperature  
Mean Temperature 36 °F -  
Max Temperature 46 °F 41 °F 67 °F (1933)
Min Temperature 27 °F 30 °F 6 °F (1976)
Degree Days  
Heating Degree Days 28    
Moisture  
Dew Point 22 °F    
Average Humidity 59    
Maximum Humidity 81    
Minimum Humidity 34    
Precipitation  
Precipitation 0.00 in - - ()
Sea Level Pressure  
Sea Level Pressure 30.31 in    
Wind  
Wind Speed 8 mph (SW)    
Max Wind Speed 18 mph    
Max Gust Speed 24 mph    
Visibility 10 miles    
Events      
Averages and records for this station are not official NWS values.
T = Trace of Precipitation, MM = Missing Value Source: NWS Daily Summary

Daily Weather History Graph

Daily Weather History Graph

Search for Another Location

Airport or City:

Trip Planner

Search our weather history database for the weather conditions in past years. The results will help you decide how hot, cold, wet, or windy it might be!

Date:

Astronomy

Nov. 29, 2012 Rise Set
Actual Time 7:33 AM EST 5:00 PM EST
Civil Twilight 7:02 AM EST 5:31 PM EST
Nautical Twilight 6:28 AM EST 6:05 PM EST
Astronomical Twilight 5:55 AM EST 6:38 PM EST
Moon 6:02 PM EST (11/29) 8:19 AM EST (11/29)
Length of Visible Light 10h 28m
Length of Day
9h 27m
Full, 99% of the Moon is Illuminated
Nov 29
Full
Dec 6
Last Quarter
Dec 13
New
Dec 20
First Quarter
Dec 28
Full

Hourly Weather History & Observations

Time (EST) Temp. Windchill Dew Point Humidity Pressure Visibility Wind Dir Wind Speed Gust Speed Precip Events Conditions
12:53 AM 27.0 °F 19.5 °F 21.9 °F 81% 30.35 in 10.0 mi WSW 6.9 mph - N/A   Clear
1:53 AM 27.0 °F 20.5 °F 21.0 °F 78% 30.35 in 10.0 mi WSW 5.8 mph - N/A   Clear
2:53 AM 27.0 °F 19.5 °F 21.0 °F 78% 30.36 in 10.0 mi SW 6.9 mph - N/A   Clear
3:53 AM 27.0 °F 20.5 °F 21.9 °F 81% 30.36 in 10.0 mi SSW 5.8 mph - N/A   Clear
5:53 AM 28.9 °F 21.9 °F 23.0 °F 78% 30.37 in 10.0 mi SW 6.9 mph - N/A   Clear
7:53 AM 28.9 °F 21.9 °F 23.0 °F 78% 30.36 in 8.0 mi SSW 6.9 mph - N/A   Clear
8:53 AM 32.0 °F 25.6 °F 25.0 °F 75% 30.37 in 8.0 mi SW 6.9 mph - N/A   Clear
9:53 AM 37.0 °F 29.3 °F 26.1 °F 65% 30.36 in 9.0 mi SW 11.5 mph - N/A   Clear
10:53 AM 41.0 °F 33.9 °F 26.1 °F 55% 30.36 in 10.0 mi WSW 12.7 mph - N/A   Clear
11:53 AM 44.1 °F 37.7 °F 25.0 °F 47% 30.34 in 10.0 mi SW 12.7 mph - N/A   Clear
12:53 PM 46.0 °F 39.0 °F 19.9 °F 35% 30.31 in 10.0 mi WSW 17.3 mph - N/A   Clear
1:53 PM 46.9 °F - 21.0 °F 36% 30.28 in 10.0 mi SW 15.0 mph - N/A   Clear
2:53 PM 46.9 °F - 19.9 °F 34% 30.26 in 10.0 mi WSW 18.4 mph 24.2 mph N/A   Clear
3:53 PM 46.0 °F 39.3 °F 21.0 °F 37% 30.26 in 10.0 mi WSW 16.1 mph - N/A   Clear
4:53 PM 41.0 °F 36.4 °F 21.0 °F 45% 30.26 in 10.0 mi SW 6.9 mph - N/A   Clear
5:53 PM 39.9 °F 36.7 °F 21.0 °F 47% 30.27 in 10.0 mi SW 4.6 mph - N/A   Clear
6:53 PM 39.0 °F 35.7 °F 19.9 °F 46% 30.28 in 10.0 mi SSW 4.6 mph - N/A   Clear
7:53 PM 35.1 °F 31.0 °F 19.9 °F 54% 30.28 in 10.0 mi SSW 4.6 mph - N/A   Clear
8:53 PM 34.0 °F 29.8 °F 21.0 °F 59% 30.29 in 10.0 mi SSW 4.6 mph - N/A   Clear
9:53 PM 33.1 °F 28.7 °F 21.0 °F 61% 30.27 in 10.0 mi South 4.6 mph - N/A   Clear
10:53 PM 32.0 °F 28.7 °F 21.0 °F 64% 30.27 in 10.0 mi South 3.5 mph - N/A   Clear
11:53 PM 32.0 °F 28.7 °F 21.0 °F 64% 30.28 in 10.0 mi South 3.5 mph - N/A   Mostly Cloudy